Location: Asni�res
(46.3838°N, 4.8834°E)
Time: 12:45:34
(UTC+00:00)

Daily predictions for brighter satellites

Satellite Brightness Start Highest point End
(mag) Time Altitude Azimuth Time Altitude Azimuth Time Altitude Azimuth
Cosmos 1980 4.4 16:19:32 10° SW 16:25:07 57° WNW 16:30:44 10° NNE
NOAA 6 4.0 16:20:55 10° SSE 16:26:00 66° ENE 16:31:06 10° N
Okean O Rocket 2.3 16:22:14 10° SE 16:26:08 33° ENE 16:30:04 10° N
Cosmos 1782 4.4 16:24:08 10° SE 16:26:41 17° E 16:29:14 10° NE
ISS -2.7 16:26:28 10° WNW 16:29:34 33° N 16:32:40 10° ENE
Cosmos 1633 Rocket 3.5 16:26:21 10° N 16:30:28 39° ENE 16:34:33 10° SE
H-2A R/B 2.8 16:26:40 10° SSE 16:30:30 86° WSW 16:34:26 10° NNW
Cosmos 1933 3.9 16:28:23 10° SSE 16:32:09 39° E 16:35:57 10° NNE
Spot 2 4.4 16:28:04 10° SSE 16:32:48 89° WSW 16:37:50 10° NNW
Nadezhda 1 Rocket 4.4 16:28:01 10° SSW 16:34:22 75° W 16:40:49 10° N
Meteor 2-12 Rocket 4.4 16:28:30 10° N 16:34:40 75° E 16:40:46 10° SSE
Cosmos 2218 Rocket 4.3 16:31:02 10° N 16:36:54 44° ENE 16:42:45 10° SSE
Cosmos 2366 rocket 4.3 16:31:59 10° N 16:37:52 43° ENE 16:43:40 10° SE
Cosmos 1867 3.8 16:32:57 10° SW 16:38:23 73° NW 16:43:52 10° NNE
Meteor 1-25 Rocket 4.4 16:33:12 10° N 16:38:43 53° ENE 16:44:17 10° SSE
ERS-2 3.9 16:36:42 10° NE 16:38:53 15° E 16:41:04 10° SE
Envisat 3.0 16:37:09 10° SSE 16:42:15 90° WNW 16:47:22 10° NNW
Lacrosse 5 rocket 1.3 16:43:13 10° WSW 16:46:52 64° NW 16:50:15 11° NE
Cosmos 773 Rocket 4.2 16:43:08 10° S 16:48:15 55° ESE 16:53:27 10° NNE
YAOGAN 6 2.6 16:47:42 10° SSE 16:51:20 85° W 16:54:57 10° NNW
Cosmos 1606 3.2 16:49:57 10° SSW 16:53:49 64° W 16:57:42 10° N
Cosmos 2297 4.0 16:48:37 10° NNW 16:54:19 77° WSW 17:00:01 10° SSE
OE (NEXTSAT) 4.3 16:52:08 10° W 16:55:35 86° S 16:58:30 14° E
AQUARIUS 4.1 16:52:03 10° SSE 16:56:29 66° ENE 17:00:57 10° N
FengYun 1-2 T 4.3 16:51:10 10° SE 16:56:31 54° ENE 17:01:52 10° N
SL-16 R/B 2.3 16:52:34 10° SSW 16:58:14 86° WNW 17:03:56 10° NNE
CZ-4B R/B 2.3 16:56:26 14° NE 16:58:32 25° E 17:01:13 10° SSE
Landsat 5 3.9 16:55:13 10° N 16:59:42 76° WNW 17:04:12 10° SSW
BREEZE-M DEB (TANK) 1.7 16:59:45 10° WSW 17:02:23 65° SSE 17:03:25 23° E
USA 215 4.3 16:59:20 13° ENE 17:03:53 26° SE 17:09:12 10° S
SMAP 3.1 17:00:50 10° SSE 17:05:29 90° WSW 17:10:11 10° NNW
Cosmos 1500 4.3 17:02:53 10° NNE 17:05:58 23° ENE 17:09:04 10° SE
Sich 1 4.3 17:03:53 10° NNW 17:08:02 44° W 17:12:08 10° SSW
YAOGAN 1 3.9 17:09:19 18° ENE 17:09:27 18° ENE 17:12:23 10° NNE
Cosmos 1656 Rocket 4.2 17:05:08 10° NNW 17:10:18 35° NE 17:15:22 10° ESE
CZ-4C R/B 4.2 17:07:11 10° N 17:10:42 45° WNW 17:14:09 10° SW
Cosmos 1151 Rocket 2.9 17:07:57 10° S 17:12:13 86° E 17:16:31 10° N
Cosmos 1470 Rocket 3.5 17:08:45 10° N 17:13:03 61° E 17:17:19 10° SSE
CSL-04 DEB 4.4 17:11:12 10° NNE 17:15:23 84° ESE 17:19:39 10° SSW
Cosmos 864 Rocket 4.5 17:12:34 10° N 17:18:56 83° E 17:25:10 10° S
Cosmos 2263 4.3 17:13:49 10° NNW 17:19:16 50° ENE 17:24:42 10° SE
Cosmos 1515 Rocket 3.7 17:15:59 10° S 17:20:15 53° E 17:24:34 10° NNE
CZ-2C R/B 3.6 17:17:06 10° SE 17:21:22 30° ENE 17:25:31 10° N
SL-8 Rocket 4.2 17:15:52 10° NNW 17:22:07 75° W 17:28:22 10° S
Cosmos 482 Debris 4.1 17:21:11 10° W 17:22:50 31° SSW 17:23:45 20° SSE
TIMED 4.4 17:19:23 10° SSW 17:23:44 85° ESE 17:27:39 13° NNE
Cosmos 1238 Rocket 3.9 17:21:39 10° NNE 17:25:10 28° ENE 17:29:16 10° SE
TELKOM 3 3.8 17:23:37 10° WNW 17:26:10 36° N 17:26:18 35° NNE
COSMO-SKYMED 1 3.0 17:23:06 16° NNE 17:26:13 41° E 17:30:19 10° S
Cosmos 1689 Rocket 4.4 17:29:01 13° SE 17:29:01 13° SE 17:29:29 10° SSE
X-37B 1.1 17:25:21 10° WSW 17:28:26 51° SSE 17:29:28 34° ESE
USA 281 3.6 17:22:28 10° ESE 17:28:29 40° NE 17:34:31 10° NNW
Nadezhda 3 Rocket 4.4 17:23:47 10° SSE 17:29:41 42° E 17:35:37 10° NNE
SAR-Lupe-4 4.2 17:29:14 32° ENE 17:29:47 34° E 17:33:05 10° SSE
USA 81 4.4 17:26:25 10° N 17:31:41 69° W 17:36:55 10° S
Meteor 2-6 Rocket 4.5 17:27:27 10° SSE 17:32:41 43° E 17:37:14 13° NNE
Helios 1A Rocket 3.7 17:33:25 29° NE 17:33:25 29° NE 17:36:23 10° N
Cosmos 2228 Rocket 3.7 17:28:45 10° SSE 17:32:53 36° E 17:34:29 27° NE
Meteor 1-4 Rocket 2.6 17:30:36 10° SSW 17:34:12 75° WNW 17:37:26 12° N
H-2A R/B 2.8 17:35:18 27° E 17:36:15 29° ENE 17:40:37 10° N
Cosmos 1812 3.3 17:33:12 10° SSE 17:36:35 35° E 17:36:35 35° E
USA 267 3.7 17:34:11 24° ENE 17:37:49 45° NNE 17:43:58 10° NW
Cosmos 1821 Rocket 4.1 17:31:42 10° N 17:37:50 54° ENE 17:44:00 10° SSE
Cosmos 1939 Rocket 2.6 17:34:50 10° SSE 17:38:41 74° ENE 17:42:39 10° N
Cosmos 1328 Rocket 4.2 17:35:58 10° SSW 17:40:12 55° WNW 17:44:30 10° N
CZ-4 R/B 4.5 17:36:29 10° SSE 17:40:31 54° ENE 17:44:34 10° N
Meteor 1-11 Rocket 4.3 17:35:29 10° N 17:40:49 37° ENE 17:46:13 10° SE
CZ-4 R/B 1.9 17:41:26 36° NE 17:41:26 36° NE 17:44:45 10° N
BREEZE-M DEB (TANK) 3.7 17:39:48 10° SSW 17:42:35 20° SSE 17:42:53 19° SE
PSLV R/B 4.3 17:42:20 39° E 17:42:35 39° E 17:46:23 10° SSE
Cosmos 44 Rocket 3.6 17:37:46 10° NNW 17:42:48 50° NE 17:45:09 29° ESE
Cosmos 1933 Rocket 3.5 17:38:38 10° N 17:43:08 86° E 17:47:34 10° S
CSL-04 Rocket 4.4 17:44:04 30° ENE 17:44:04 30° ENE 17:48:19 10° N
IRS-1C Rocket 4.0 17:39:48 10° SSE 17:45:03 72° ENE 17:50:20 10° N
SAR-Lupe-1 4.1 17:46:35 52° E 17:46:48 53° ESE 17:50:18 10° S
Lacrosse 4 Rocket 3.5 17:46:15 10° SSE 17:46:59 13° SE 17:46:59 13° SE
Cosmos 1680 Rocket 4.0 17:44:50 10° SSE 17:49:40 38° ESE 17:50:18 36° E
Cosmos 2237 Rocket 4.4 17:46:18 10° W 17:50:05 18° NW 17:53:53 10° N
SKYMED 3 4.4 17:47:24 21° NNE 17:50:19 73° ESE 17:54:38 10° S
SL-24 R/B 3.6 17:49:33 47° NE 17:50:22 62° E 17:53:59 10° S
Cosmos 1603 3.6 17:48:13 10° SSW 17:53:49 74° ESE 17:56:56 27° NNE
CZ-2D R/B 3.1 17:51:45 10° SSE 17:55:34 80° ENE 17:59:25 10° N
Cosmos 1943 3.1 17:51:34 10° SSW 17:57:11 70° ESE 17:59:58 31° NE
H-2A R/B 4.1 17:54:18 10° N 17:57:49 26° WNW 18:01:22 10° WSW
Cosmos 2369 Rocket 2.6 17:53:24 10° NNW 17:59:02 65° WSW 18:04:37 10° SSE
Cosmos 1538 Rocket 4.4 17:54:00 10° SSW 17:59:20 65° WNW 18:03:44 16° NNE
Cosmos 1943 Rocket 3.6 17:55:01 10° NW 18:00:09 39° WSW 18:05:18 10° S
Meteor 1-5 Rocket 4.2 17:55:26 10° N 18:01:22 81° ENE 18:07:06 10° SSE
Okean O Rocket 3.8 17:58:48 10° SSW 18:02:30 27° W 18:06:15 10° NW
Cosmos 1782 4.1 17:58:53 10° SSW 18:02:38 41° WNW 18:06:26 10° N
Okean-O 2.5 17:59:30 10° SSE 18:03:54 69° ENE 18:08:19 10° N
Cosmos 1461 4.3 17:59:53 10° S 18:02:44 28° SE 18:02:44 28° SE
Cosmos 1371 Rocket 4.4 17:59:17 10° N 18:03:40 41° NE 18:03:40 41° NE
ARGOS 4.1 18:08:32 30° NNE 18:08:32 30° NNE 18:11:40 10° N
ISS -2.4 18:03:38 10° WNW 18:05:55 33° NNW 18:05:55 33° NNW
CENTAUR R/B 2.9 18:01:55 10° S 18:07:18 40° ESE 18:07:45 40° ESE
Cosmos 2112 Rocket 4.2 18:05:08 10° S 18:09:53 48° ESE 18:09:53 48° ESE
Cosmos 2056 Rocket 4.1 18:05:29 10° N 18:09:29 39° NNE 18:09:29 39° NNE
ERS-2 3.3 18:10:45 23° NNW 18:12:38 42° WNW 18:16:06 10° SW
SKYMED 2 3.9 18:11:44 23° N 18:14:21 64° WNW 18:18:38 10° SSW
NOSS 3-2 (C) 3.7 18:10:07 10° S 18:15:10 43° ESE 18:15:10 43° ESE
Cosmos 1869 Rocket 3.4 18:13:22 10° N 18:22:43 - S 18:17:48 82° NE
BREEZE-M DEB (TANK) 3.3 18:12:16 10° SW 18:20:00 61° SSE 18:20:00 61° SSE
Meteor 1-27 Rocket 4.0 18:15:59 10° S 18:20:11 46° SE 18:20:11 46° SE
Meteor 1-10 Rocket 4.1 18:20:09 10° S 18:25:47 86° W 18:28:49 29° N
Lacrosse 5 rocket 3.2 18:23:52 10° WNW 18:25:53 18° NNW 18:25:53 18° NNW
Cosmos 371 Rocket 4.0 18:24:45 10° NNW 18:28:00 41° N 18:28:00 41° N
CZ-4B R/B 3.9 18:29:34 15° NW 18:30:37 17° WNW 18:32:46 10° WSW
NOSS 3-2 (A) 3.3 18:34:55 10° SW 18:40:36 83° NW 18:41:27 67° NNE
SL-16 R/B 4.4 18:39:21 10° W 18:43:14 19° NW 18:46:58 11° N
YAOGAN 1 3.8 18:46:28 38° NW 18:46:28 38° NW 18:49:25 10° NNW
Cosmos 1535 Rocket 4.3 18:39:12 10° N 18:45:21 89° WSW 18:51:28 10° S
USA 215 3.1 18:46:42 71° ENE 18:47:30 85° SE 18:54:02 10° SW
MOS 1 Rocket 4.0 18:52:44 47° NNW 18:54:01 61° WNW 18:59:17 10° SSW
USA 238 DEB 3.7 18:53:24 10° SW 18:59:59 75° NW 19:00:34 70° N
USA 238 3.6 18:53:29 10° SW 19:00:05 75° NW 19:00:39 71° N
CZ-2C R/B 4.3 18:56:37 10° SSW 19:01:11 36° W 19:05:37 10° NNW
Cosmos 1934 Rocket 4.5 19:01:00 10° NNW 19:07:14 59° W 19:13:22 10° S
USA 281 4.0 19:06:34 10° S 19:12:51 48° WSW 19:19:12 10° NW
H-2A R/B 3.2 19:15:55 41° W 19:15:55 41° W 19:20:24 10° NNW
CZ-4 R/B 4.1 19:17:28 17° WNW 19:17:28 17° WNW 19:19:10 10° NW
USA 267 3.4 19:21:32 67° WNW 19:21:32 67° WNW 19:27:08 10° NW
CENTAUR R/B 4.0 19:51:54 10° WSW 19:54:58 30° W 19:54:58 30° W
